TimeMST,TemperatureF,Dew PointF,Humidity,Sea Level PressureIn,VisibilityMPH,Wind Direction,Wind SpeedMPH,Gust SpeedMPH,PrecipitationIn,Events,Conditions,WindDirDegrees,DateUTC
12:55 AM,70.0,30.0,23,29.80,10.0,West,5.8,-,N/A,,Mostly Cloudy,260,2013-03-21 07:55:00
1:55 AM,68.0,33.1,27,29.79,10.0,West,5.8,-,N/A,,Mostly Cloudy,260,2013-03-21 08:55:00
2:55 AM,68.0,30.9,25,29.78,10.0,West,5.8,-,N/A,,Mostly Cloudy,280,2013-03-21 09:55:00
3:55 AM,69.1,30.0,23,29.77,10.0,North,3.5,-,N/A,,Mostly Cloudy,350,2013-03-21 10:55:00
4:55 AM,69.1,30.9,24,29.76,10.0,WNW,10.4,-,N/A,,Mostly Cloudy,300,2013-03-21 11:55:00
5:55 AM,66.9,33.1,28,29.75,10.0,West,4.6,-,N/A,,Mostly Cloudy,270,2013-03-21 12:55:00
6:55 AM,66.0,35.1,32,29.77,10.0,NNW,4.6,-,N/A,,Mostly Cloudy,330,2013-03-21 13:55:00
7:55 AM,69.1,37.9,32,29.77,10.0,Calm,Calm,-,N/A,,Mostly Cloudy,0,2013-03-21 14:55:00
8:55 AM,70.0,37.0,30,29.78,10.0,WSW,3.5,-,N/A,,Mostly Cloudy,250,2013-03-21 15:55:00
9:55 AM,73.9,39.9,29,29.79,10.0,WSW,3.5,-,N/A,,Mostly Cloudy,240,2013-03-21 16:55:00
10:55 AM,75.0,42.1,31,29.79,10.0,Calm,Calm,-,N/A,,Mostly Cloudy,0,2013-03-21 17:55:00
11:55 AM,79.0,37.9,23,29.78,10.0,Calm,Calm,-,N/A,,Mostly Cloudy,0,2013-03-21 18:55:00
12:55 PM,81.0,39.9,23,29.76,10.0,WSW,4.6,-,N/A,,Mostly Cloudy,240,2013-03-21 19:55:00
1:55 PM,84.0,39.0,20,29.73,10.0,WSW,8.1,-,N/A,,Mostly Cloudy,240,2013-03-21 20:55:00
2:55 PM,84.0,41.0,22,29.70,10.0,West,8.1,-,N/A,,Mostly Cloudy,260,2013-03-21 21:55:00
3:55 PM,82.9,39.9,22,29.69,10.0,SW,10.4,-,N/A,,Mostly Cloudy,230,2013-03-21 22:55:00
4:55 PM,82.9,39.0,21,29.67,10.0,WSW,9.2,-,N/A,,Mostly Cloudy,240,2013-03-21 23:55:00
5:55 PM,82.0,39.0,22,29.67,10.0,WSW,8.1,-,N/A,,Mostly Cloudy,240,2013-03-22 00:55:00
6:55 PM,79.0,42.1,27,29.66,10.0,SW,5.8,-,N/A,,Mostly Cloudy,220,2013-03-22 01:55:00
7:55 PM,75.0,42.1,31,29.66,10.0,WSW,4.6,-,N/A,,Mostly Cloudy,240,2013-03-22 02:55:00
8:55 PM,71.1,43.0,36,29.67,10.0,Calm,Calm,-,N/A,,Scattered Clouds,0,2013-03-22 03:55:00
9:55 PM,66.9,43.0,42,29.68,10.0,Calm,Calm,-,N/A,,Scattered Clouds,0,2013-03-22 04:55:00
10:55 PM,66.0,42.1,42,29.70,10.0,NNW,4.6,-,N/A,,Scattered Clouds,330,2013-03-22 05:55:00
11:55 PM,66.0,42.1,42,29.68,10.0,South,4.6,-,N/A,,Partly Cloudy,190,2013-03-22 06:55:00